Regional Weather Roundup
Issued by NWS

Home | Current Version | Previous Version | Graphics & Text | Print | Product List | Glossary On
Versions: 1 2 3 4 5 6 7 8 9 10 11 12 13 14 15 16 17 18 19 20 21 22 23 24 25 26 27 28 29 30 31 32 33 34 35 36 37 38 39 40 41 42 43 44 45 46 47 48 49 50
650
ASUS43 KOAX 290802
RWRNE

WEATHER ROUNDUP FOR NEBRASKA
NATIONAL WEATHER SERVICE OMAHA NE
300 AM CDT MON MAY 29 2017

NOTES: SATELLITE DATA IS BEING USED TO AUGMENT CLOUD COVER ABOVE
       12000 FEET.
       "FAIR" INDICATES FEW OR NO CLOUDS BELOW 12,000 FEET WITH NO
       SIGNIFICANT WEATHER AND/OR OBSTRUCTIONS TO VISIBILITY.

  * THESE STATIONS DO NOT REPORT WEATHER SUCH AS RAIN...SNOW OR FOG.

NEZ001>004-019>022-054>056-290900-
NEBRASKA PANHANDLE

CITY           SKY/WX    TMP DP  RH WIND       PRES   REMARKS
SCOTTSBLUFF    CLEAR     50  43  77 W9        30.18S
ALLIANCE       CLEAR     48  44  86 NW10      30.13F
CHADRON        CLEAR     51  45  79 NW14      30.13S
GORDON         FAIR      47  43  85 W13       30.10S
KIMBALL        CLEAR     46  43  89 NW10      30.22S
SIDNEY         CLEAR     46  43  89 W9        30.19F
$$

NEZ057>060-069>072-079>082-290900-
SOUTHWEST NEBRASKA

CITY           SKY/WX    TMP DP  RH WIND       PRES   REMARKS
NORTH PLATTE   CLEAR     44  43  96 W6        30.08R
IMPERIAL       CLEAR     52  45  77 W10       30.13S
LEXINGTON      CLEAR     51  46  84 W7        30.04S
MCCOOK         CLEAR     51  46  83 W8        30.09R
OGALLALA       CLEAR     50  46  87 W6        30.13S
$$

NEZ005>010-023>029-035>040-094-290900-
NORTH CENTRAL NEBRASKA

CITY           SKY/WX    TMP DP  RH WIND       PRES   REMARKS
VALENTINE      CLEAR     51  45  79 NW12      30.04R
AINSWORTH      CLEAR     52  48  85 NW8       30.03R
BROKEN BOW     CLEAR     57  45  64 NW15      30.02R
O`NEILL        CLEAR     55  45  71 NW9       29.98R
ORD            CLEAR     54  45  71 NW13      29.98R
THEDFORD       PTCLDY    51  47  83 W10       30.06R
$$

NEZ041-046>049-061>064-073>077-083>087-290900-
SOUTH CENTRAL NEBRASKA

CITY           SKY/WX    TMP DP  RH WIND       PRES   REMARKS
GRAND ISLAND   CLEAR     54  47  77 W10       29.99R
AURORA         CLEAR     55  47  72 W9        29.98S
HASTINGS       CLEAR     55  46  71 W9        30.01R
HEBRON         CLEAR     58  50  75 CALM      29.99R
HOLDREGE       CLEAR     52  46  80 W6        30.04R
KEARNEY *      CLEAR     54  43  66 W9        30.02S
$$

NEZ011>018-030>034-042>045-290900-
NORTHEAST NEBRASKA

CITY           SKY/WX    TMP DP  RH WIND       PRES   REMARKS
NORFOLK        CLEAR     55  44  66 W8        29.92R
ALBION         CLEAR     55  46  70 N9        29.96R
BLAIR          CLEAR     59  43  54 W7        29.90S
FREMONT        PTCLDY    54  44  70 W6        29.91S
TEKAMAH        PTCLDY    63  43  48 NW15      29.88R
WAYNE          CLEAR     58  45  62 NW7       29.91S
$$

NEZ050>053-065>068-078-088>093-290900-
SOUTHEAST NEBRASKA

CITY           SKY/WX    TMP DP  RH WIND       PRES   REMARKS
LINCOLN        PTCLDY    57  45  64 CALM      29.95R
OMAHA EPPLEY   CLEAR     61  43  51 NW3       29.89R
BEATRICE       CLEAR     56  49  78 W6        29.95R
FALLS CITY     PTCLDY    57  46  66 SW5       29.92R
NEBRASKA CITY  CLEAR     60  42  51 W12       29.92R
PLATTSMOUTH    CLEAR     60  44  54 W7        29.91R
$$

NEZ044-045-051>053-067-290900-
OMAHA AREA

CITY           SKY/WX    TMP DP  RH WIND       PRES   REMARKS
OMAHA EPPLEY   CLEAR     61  43  51 NW3       29.89R
BLAIR          CLEAR     59  43  54 W7        29.90S
FREMONT        PTCLDY    54  44  70 W6        29.91S
MILLARD        CLEAR     58  49  74 CALM      29.91R
OFFUTT AFB     CLEAR     54  46  74 W3        29.90R
PLATTSMOUTH    CLEAR     60  44  54 W7        29.91R
WAHOO          FAIR      60  42  51 NW9       29.92R
$$




USA.gov is the U.S. government's official web portal to all federal, state and local government web resources and services.